Location: McFarlands Corners
(41.4117°N, 81.3382°W)
Time: 03:14:52
(UTC+00:00)

Transit 4A - Pass Details

Date: 22 February 2026
Orbit: 864 x 977 km, 66.8° (Epoch: 7 March)

Event Time Altitude Azimuth Distance (km) Brightness Sun altitude
Rises 18:40:48 0° 313° (NW) 3,636 10.8 36.7°
Reaches altitude 10° 18:44:16 10° 295° (WNW) 2,702 10.4 36.4°
Maximum altitude 18:48:07 17° 257° (WSW) 2,241 10.5 36.2°
Drops below altitude 10° 18:51:59 10° 219° (SW) 2,715 11.6 35.9°
Sets 18:55:29 0° 200° (SSW) 3,660 12.0 35.7°
